Weather History for 93780 - August, 2013

Change the Weather History Date:

Sunday, August 25, 2013

  Actual Average Record
Temperature  
Mean Temperature 46 °F -  
Max Temperature 55 °F 55 °F - ()
Min Temperature 37 °F 36 °F - ()
Degree Days  
Heating Degree Days 19    
Moisture  
Dew Point 41 °F    
Average Humidity 85    
Maximum Humidity 100    
Minimum Humidity 62    
Precipitation  
Precipitation 0.00 in - - ()
Sea Level Pressure  
Sea Level Pressure 29.65 in    
Wind  
Wind Speed 4 mph ()    
Max Wind Speed 9 mph    
Max Gust Speed -    
Visibility 6.2 miles    
Events Fog    
T = Trace of Precipitation, MM = Missing Value Source: Averaged Metar Reports

Daily Weather History Graph

Daily Weather History Graph

Search for Another Location

Airport or City:

Trip Planner

Search our weather history database for the weather conditions in past years. The results will help you decide how hot, cold, wet, or windy it might be!

Date:

Astronomy

Aug. 25, 2013 Rise Set
Actual Time 7:09 AM NZST 5:55 PM NZST
Civil Twilight 6:40 AM NZST 6:24 PM NZST
Nautical Twilight 6:06 AM NZST 6:57 PM NZST
Astronomical Twilight 5:33 AM NZST 7:30 PM NZST
Moon 10:45 PM NZST (8/25) 8:53 AM NZST (8/25)
Length of Visible Light 11h 44m
Length of Day
10h 46m
Waning Gibbous, 82% of the Moon is Illuminated
Aug 25
Waning Gibbous
Aug 28
Last Quarter
Sep 5
New
Sep 13
First Quarter
Sep 19
Full

Hourly Weather History & Observations

Time (NZST) Temp. Windchill Dew Point Humidity Pressure Visibility Wind Dir Wind Speed Gust Speed Precip Events Conditions
12:00 AM 42.8 °F 38.6 °F 39.2 °F 87% 29.59 in - NE 6.9 mph - N/A   Clear
1:00 AM 42.8 °F - 39.2 °F 87% 29.59 in - ENE 2.3 mph - N/A   Clear
2:00 AM 41.0 °F 38.0 °F 37.4 °F 87% 29.59 in - NNE 4.6 mph - N/A   Clear
3:00 AM 37.4 °F - 35.6 °F 93% 29.59 in - SSE 2.3 mph - N/A   Clear
4:00 AM 39.2 °F - 37.4 °F 93% 29.59 in 6.2 mi SE 1.2 mph - N/A   Unknown
5:00 AM 41.0 °F - 39.2 °F 93% 29.59 in - ENE 2.3 mph - N/A Fog Patches of Fog
6:00 AM 37.4 °F - 37.4 °F 100% 29.59 in 6.2 mi North 1.2 mph - N/A Fog Shallow Fog
7:00 AM 41.0 °F 36.4 °F 41.0 °F 100% 29.62 in - NNE 6.9 mph - N/A   Clear
8:00 AM 42.8 °F - 39.2 °F 87% 29.65 in - NNE 2.3 mph - N/A   Clear
9:00 AM 44.6 °F 41.4 °F 41.0 °F 87% 29.68 in - SW 5.8 mph - N/A   Clear
10:00 AM 48.2 °F - 46.4 °F 93% 29.68 in - SE 1.2 mph - N/A   Clear
11:00 AM 51.8 °F - 44.6 °F 76% 29.68 in - WSW 6.9 mph - N/A   Clear
12:00 PM 53.6 °F - 42.8 °F 67% 29.71 in - WSW 9.2 mph - N/A   Clear
1:00 PM 53.6 °F - 41.0 °F 62% 29.68 in - SW 8.1 mph - N/A   Clear
2:00 PM 53.6 °F - 41.0 °F 62% 29.68 in - SW 6.9 mph - N/A   Clear
3:00 PM 53.6 °F - 44.6 °F 72% 29.68 in - SW 4.6 mph - N/A   Clear
4:00 PM 53.6 °F - 44.6 °F 72% 29.68 in - SW 5.8 mph - N/A   Clear
5:00 PM 55.4 °F - 44.6 °F 67% 29.68 in - SSW 3.5 mph - N/A   Clear
6:00 PM 51.8 °F - 44.6 °F 76% 29.71 in - West 1.2 mph - N/A   Clear
7:00 PM 46.4 °F - 42.8 °F 87% 29.71 in - Calm Calm - N/A   Clear
8:00 PM 44.6 °F - 41.0 °F 87% 29.68 in - ESE 1.2 mph - N/A   Clear
9:00 PM 42.8 °F - 42.8 °F 100% 29.68 in - NNE 2.3 mph - N/A   Clear
10:00 PM 42.8 °F 40.1 °F 41.0 °F 93% 29.68 in - NE 4.6 mph - N/A   Clear
11:00 PM 44.6 °F 40.7 °F 44.6 °F 100% 29.65 in - East 6.9 mph - N/A   Clear